contact:dominique.lefevre@mio.osupytheas.fr, maurice.libes@osupytheas.fr, didier.mallarino@osupytheas.fr
Project:EMSO http://www.emso-fr.org/EMSO-France
Depth: 2436.0 m
Title:EMSO Ligure Ouest : Data MII capteur MICROCAT
DateTime_Computer,Latitude,Longitude,Temperature,Conductivity,Pressure,DateTime_Instrument
DateTime_Computer,Latitude,Longitude,degC,S m-1,dbar,DateTime_Instrument
2020-01-23T00:02:30Z,42.805,6.029,13.2963,4.59960,2469.9,2020-1-23T02:03:03Z
2020-01-23T00:05:33Z,42.805,6.029,13.2962,4.59959,2469.867,2020-1-23T02:06:06Z
2020-01-23T00:08:36Z,42.805,6.029,13.2958,4.59960,2469.876,2020-1-23T02:09:09Z
2020-01-23T00:11:40Z,42.805,6.029,13.2960,4.59960,2469.89,2020-1-23T02:12:13Z
2020-01-23T00:14:43Z,42.805,6.029,13.2967,4.59961,2469.876,2020-1-23T02:15:16Z
2020-01-23T00:17:46Z,42.805,6.029,13.2963,4.59960,2469.914,2020-1-23T02:18:19Z
2020-01-23T00:20:49Z,42.805,6.029,13.2961,4.59960,2469.914,2020-1-23T02:21:22Z
2020-01-23T00:23:53Z,42.805,6.029,13.2963,4.59960,2469.9,2020-1-23T02:24:26Z
2020-01-23T00:26:56Z,42.805,6.029,13.2962,4.59960,2469.923,2020-1-23T02:27:29Z
2020-01-23T00:29:59Z,42.805,6.029,13.2961,4.59960,2469.876,2020-1-23T02:30:32Z
2020-01-23T00:33:02Z,42.805,6.029,13.2965,4.59960,2469.853,2020-1-23T02:33:35Z
2020-01-23T00:36:05Z,42.805,6.029,13.2961,4.59961,2469.853,2020-1-23T02:36:38Z
2020-01-23T00:39:09Z,42.805,6.029,13.2964,4.59960,2469.937,2020-1-23T02:39:42Z
2020-01-23T00:42:12Z,42.805,6.029,13.2964,4.59960,2469.89,2020-1-23T02:42:45Z
2020-01-23T00:45:15Z,42.805,6.029,13.2964,4.59960,2469.9,2020-1-23T02:45:48Z
2020-01-23T00:48:18Z,42.805,6.029,13.2965,4.59960,2469.89,2020-1-23T02:48:51Z
2020-01-23T00:51:22Z,42.805,6.029,13.2963,4.59960,2469.914,2020-1-23T02:51:55Z
2020-01-23T00:54:25Z,42.805,6.029,13.2960,4.59961,2469.9,2020-1-23T02:54:58Z
2020-01-23T00:57:28Z,42.805,6.029,13.2958,4.59960,2469.876,2020-1-23T02:58:01Z
2020-01-23T01:00:32Z,42.805,6.029,13.2963,4.59961,2469.89,2020-1-23T03:01:05Z
2020-01-23T01:03:35Z,42.805,6.029,13.2961,4.59960,2469.914,2020-1-23T03:04:08Z
2020-01-23T01:06:38Z,42.805,6.029,13.2962,4.59961,2469.914,2020-1-23T03:07:11Z
2020-01-23T01:09:42Z,42.805,6.029,13.2966,4.59961,2469.853,2020-1-23T03:10:15Z
2020-01-23T01:12:45Z,42.805,6.029,13.2960,4.59961,2469.886,2020-1-23T03:13:18Z
2020-01-23T01:15:48Z,42.805,6.029,13.2963,4.59960,2469.876,2020-1-23T03:16:21Z
2020-01-23T01:18:51Z,42.805,6.029,13.2961,4.59960,2469.853,2020-1-23T03:19:24Z
2020-01-23T01:21:55Z,42.805,6.029,13.2963,4.59960,2469.9,2020-1-23T03:22:28Z
2020-01-23T01:24:58Z,42.805,6.029,13.2961,4.59959,2469.914,2020-1-23T03:25:31Z
2020-01-23T01:28:01Z,42.805,6.029,13.2961,4.59960,2469.9,2020-1-23T03:28:34Z
2020-01-23T01:31:04Z,42.805,6.029,13.2959,4.59959,2469.914,2020-1-23T03:31:37Z
2020-01-23T01:34:08Z,42.805,6.029,13.2962,4.59960,2469.923,2020-1-23T03:34:41Z
2020-01-23T01:37:11Z,42.805,6.029,13.2964,4.59961,2469.937,2020-1-23T03:37:44Z
2020-01-23T01:40:14Z,42.805,6.029,13.2964,4.59961,2469.89,2020-1-23T03:40:47Z
2020-01-23T01:43:17Z,42.805,6.029,13.2961,4.59959,2469.89,2020-1-23T03:43:50Z
2020-01-23T01:46:20Z,42.805,6.029,13.2962,4.59960,2469.89,2020-1-23T03:46:54Z
2020-01-23T01:49:24Z,42.805,6.029,13.2963,4.59961,2469.9,2020-1-23T03:49:57Z
2020-01-23T01:52:27Z,42.805,6.029,13.2964,4.59960,2469.876,2020-1-23T03:53:00Z
2020-01-23T01:55:30Z,42.805,6.029,13.2961,4.59961,2469.923,2020-1-23T03:56:03Z
2020-01-23T01:58:34Z,42.805,6.029,13.2964,4.59961,2469.853,2020-1-23T03:59:07Z
2020-01-23T02:01:37Z,42.805,6.029,13.2965,4.59960,2469.937,2020-1-23T04:02:10Z
2020-01-23T02:04:40Z,42.805,6.029,13.2964,4.59961,2469.923,2020-1-23T04:05:13Z
2020-01-23T02:07:43Z,42.805,6.029,13.2960,4.59960,2469.97,2020-1-23T04:08:16Z
2020-01-23T02:10:46Z,42.805,6.029,13.2964,4.59960,2469.937,2020-1-23T04:11:19Z
2020-01-23T02:13:49Z,42.805,6.029,13.2962,4.59960,2469.96,2020-1-23T04:14:23Z
2020-01-23T02:16:53Z,42.805,6.029,13.2961,4.59960,2469.937,2020-1-23T04:17:26Z
2020-01-23T02:19:56Z,42.805,6.029,13.2958,4.59960,2469.947,2020-1-23T04:20:29Z
2020-01-23T02:22:59Z,42.805,6.029,13.2961,4.59960,2469.96,2020-1-23T04:23:32Z
2020-01-23T02:26:02Z,42.805,6.029,13.2960,4.59960,2469.923,2020-1-23T04:26:36Z
2020-01-23T02:29:06Z,42.805,6.029,13.2964,4.59961,2469.914,2020-1-23T04:29:39Z
2020-01-23T02:32:09Z,42.805,6.029,13.2965,4.59961,2469.933,2020-1-23T04:32:42Z
2020-01-23T02:35:13Z,42.805,6.029,13.2964,4.59961,2469.97,2020-1-23T04:35:46Z
2020-01-23T02:38:16Z,42.805,6.029,13.2961,4.59961,2469.937,2020-1-23T04:38:49Z
2020-01-23T02:41:19Z,42.805,6.029,13.2964,4.59960,2469.96,2020-1-23T04:41:52Z
2020-01-23T02:44:22Z,42.805,6.029,13.2961,4.59962,2469.96,2020-1-23T04:44:55Z
2020-01-23T02:47:26Z,42.805,6.029,13.2964,4.59961,2469.923,2020-1-23T04:47:59Z
2020-01-23T02:50:29Z,42.805,6.029,13.2960,4.59961,2469.96,2020-1-23T04:51:02Z
2020-01-23T02:53:32Z,42.805,6.029,13.2964,4.59961,2469.97,2020-1-23T04:54:05Z
2020-01-23T02:56:35Z,42.805,6.029,13.2966,4.59961,2469.97,2020-1-23T04:57:08Z
2020-01-23T02:59:38Z,42.805,6.029,13.2965,4.59961,2470.007,2020-1-23T05:00:12Z
2020-01-23T03:02:42Z,42.805,6.029,13.2964,4.59961,2469.984,2020-1-23T05:03:15Z
2020-01-23T03:05:45Z,42.805,6.029,13.2959,4.59961,2469.97,2020-1-23T05:06:18Z
2020-01-23T03:08:48Z,42.805,6.029,13.2963,4.59960,2470.007,2020-1-23T05:09:21Z
2020-01-23T03:11:51Z,42.805,6.029,13.2962,4.59961,2469.947,2020-1-23T05:12:25Z
2020-01-23T03:14:55Z,42.805,6.029,13.2962,4.59961,2470.007,2020-1-23T05:15:28Z
2020-01-23T03:17:58Z,42.805,6.029,13.2963,4.59961,2470.03,2020-1-23T05:18:31Z
2020-01-23T03:21:01Z,42.805,6.029,13.2961,4.59961,2469.984,2020-1-23T05:21:34Z
2020-01-23T03:24:04Z,42.805,6.029,13.2962,4.59960,2469.97,2020-1-23T05:24:37Z
2020-01-23T03:27:08Z,42.805,6.029,13.2967,4.59961,2470.007,2020-1-23T05:27:41Z
2020-01-23T03:30:11Z,42.805,6.029,13.2958,4.59961,2469.993,2020-1-23T05:30:44Z
2020-01-23T03:33:14Z,42.805,6.029,13.2965,4.59960,2470.007,2020-1-23T05:33:47Z
2020-01-23T03:36:17Z,42.805,6.029,13.2963,4.59961,2469.993,2020-1-23T05:36:50Z
2020-01-23T03:39:20Z,42.805,6.029,13.2964,4.59960,2470.007,2020-1-23T05:39:54Z
2020-01-23T03:42:24Z,42.805,6.029,13.2959,4.59961,2470.017,2020-1-23T05:42:57Z
2020-01-23T03:45:27Z,42.805,6.029,13.2965,4.59961,2470.007,2020-1-23T05:46:00Z
2020-01-23T03:48:30Z,42.805,6.029,13.2963,4.59961,2470.03,2020-1-23T05:49:03Z
2020-01-23T03:51:34Z,42.805,6.029,13.2961,4.59961,2469.993,2020-1-23T05:52:07Z
2020-01-23T03:54:37Z,42.805,6.029,13.2964,4.59961,2470.04,2020-1-23T05:55:10Z
2020-01-23T03:57:40Z,42.805,6.029,13.2964,4.59961,2470.017,2020-1-23T05:58:13Z
2020-01-23T04:00:43Z,42.805,6.029,13.2964,4.59962,2469.993,2020-1-23T06:01:17Z
2020-01-23T04:03:47Z,42.805,6.029,13.2970,4.59961,2470.017,2020-1-23T06:04:20Z
2020-01-23T04:06:50Z,42.805,6.029,13.2964,4.59961,2470.053,2020-1-23T06:07:23Z
2020-01-23T04:09:53Z,42.805,6.029,13.2961,4.59961,2470.053,2020-1-23T06:10:26Z
2020-01-23T04:12:56Z,42.805,6.029,13.2961,4.59961,2470.053,2020-1-23T06:13:29Z
2020-01-23T04:16:00Z,42.805,6.029,13.2961,4.59961,2470.017,2020-1-23T06:16:33Z
2020-01-23T04:19:03Z,42.805,6.029,13.2963,4.59961,2470.053,2020-1-23T06:19:36Z
2020-01-23T04:22:06Z,42.805,6.029,13.2960,4.59961,2470.063,2020-1-23T06:22:39Z
2020-01-23T04:25:09Z,42.805,6.029,13.2960,4.59962,2470.053,2020-1-23T06:25:42Z
2020-01-23T04:28:13Z,42.805,6.029,13.2962,4.59961,2470.1,2020-1-23T06:28:46Z
2020-01-23T04:31:16Z,42.805,6.029,13.2962,4.59961,2470.087,2020-1-23T06:31:49Z
2020-01-23T04:34:19Z,42.805,6.029,13.2964,4.59961,2470.077,2020-1-23T06:34:52Z
2020-01-23T04:37:22Z,42.805,6.029,13.2963,4.59961,2470.063,2020-1-23T06:37:55Z
2020-01-23T04:40:26Z,42.805,6.029,13.2961,4.59961,2470.04,2020-1-23T06:40:59Z
2020-01-23T04:43:29Z,42.805,6.029,13.2960,4.59962,2470.063,2020-1-23T06:44:02Z
2020-01-23T04:46:32Z,42.805,6.029,13.2962,4.59961,2470.053,2020-1-23T06:47:06Z
2020-01-23T04:49:36Z,42.805,6.029,13.2959,4.59961,2470.077,2020-1-23T06:50:09Z
2020-01-23T04:52:39Z,42.805,6.029,13.2967,4.59961,2470.053,2020-1-23T06:53:12Z
2020-01-23T04:55:42Z,42.805,6.029,13.2965,4.59961,2470.1,2020-1-23T06:56:15Z
2020-01-23T04:58:45Z,42.805,6.029,13.2961,4.59961,2470.063,2020-1-23T06:59:18Z
2020-01-23T05:01:49Z,42.805,6.029,13.2961,4.59961,2470.063,2020-1-23T07:02:22Z
2020-01-23T05:04:52Z,42.805,6.029,13.2960,4.59961,2470.077,2020-1-23T07:05:25Z
2020-01-23T05:07:55Z,42.805,6.029,13.2963,4.59963,2470.087,2020-1-23T07:08:28Z
2020-01-23T05:10:58Z,42.805,6.029,13.2962,4.59962,2470.063,2020-1-23T07:11:31Z
2020-01-23T05:14:02Z,42.805,6.029,13.2963,4.59961,2470.077,2020-1-23T07:14:35Z
2020-01-23T05:17:05Z,42.805,6.029,13.2964,4.59961,2470.087,2020-1-23T07:17:38Z
2020-01-23T05:20:08Z,42.805,6.029,13.2964,4.59961,2470.063,2020-1-23T07:20:41Z
2020-01-23T05:23:11Z,42.805,6.029,13.2965,4.59962,2470.087,2020-1-23T07:23:44Z
2020-01-23T05:26:14Z,42.805,6.029,13.2964,4.59962,2470.124,2020-1-23T07:26:48Z
2020-01-23T05:29:18Z,42.805,6.029,13.2963,4.59962,2470.063,2020-1-23T07:29:51Z
2020-01-23T05:32:21Z,42.805,6.029,13.2966,4.59962,2470.1,2020-1-23T07:32:54Z
2020-01-23T05:35:24Z,42.805,6.029,13.2965,4.59961,2470.087,2020-1-23T07:35:57Z
2020-01-23T05:38:27Z,42.805,6.029,13.2964,4.59962,2470.1,2020-1-23T07:39:01Z
2020-01-23T05:41:31Z,42.805,6.029,13.2961,4.59963,2470.119,2020-1-23T07:42:04Z
2020-01-23T05:44:34Z,42.805,6.029,13.2964,4.59962,2470.11,2020-1-23T07:45:07Z
2020-01-23T05:47:37Z,42.805,6.029,13.2961,4.59961,2470.087,2020-1-23T07:48:10Z
2020-01-23T05:50:40Z,42.805,6.029,13.2967,4.59961,2470.11,2020-1-23T07:51:13Z
2020-01-23T05:53:44Z,42.805,6.029,13.2963,4.59962,2470.11,2020-1-23T07:54:17Z
2020-01-23T05:56:47Z,42.805,6.029,13.2961,4.59962,2470.087,2020-1-23T07:57:20Z
2020-01-23T05:59:50Z,42.805,6.029,13.2963,4.59962,2470.133,2020-1-23T08:00:23Z
2020-01-23T06:02:54Z,42.805,6.029,13.2962,4.59961,2470.096,2020-1-23T08:03:27Z
2020-01-23T06:05:57Z,42.805,6.029,13.2961,4.59961,2470.124,2020-1-23T08:06:30Z
2020-01-23T06:09:00Z,42.805,6.029,13.2962,4.59961,2470.11,2020-1-23T08:09:33Z
2020-01-23T06:12:03Z,42.805,6.029,13.2964,4.59962,2470.124,2020-1-23T08:12:36Z
2020-01-23T06:15:06Z,42.805,6.029,13.2963,4.59963,2470.147,2020-1-23T08:15:40Z
2020-01-23T06:18:10Z,42.805,6.029,13.2964,4.59962,2470.147,2020-1-23T08:18:43Z
2020-01-23T06:21:13Z,42.805,6.029,13.2965,4.59962,2470.133,2020-1-23T08:21:46Z
2020-01-23T06:24:16Z,42.805,6.029,13.2962,4.59962,2470.147,2020-1-23T08:24:49Z
2020-01-23T06:27:19Z,42.805,6.029,13.2958,4.59963,2470.124,2020-1-23T08:27:53Z
2020-01-23T06:30:23Z,42.805,6.029,13.2961,4.59963,2470.147,2020-1-23T08:30:56Z
2020-01-23T06:33:26Z,42.805,6.029,13.2965,4.59963,2470.156,2020-1-23T08:33:59Z
2020-01-23T06:36:29Z,42.805,6.029,13.2963,4.59962,2470.1,2020-1-23T08:37:02Z
2020-01-23T06:39:32Z,42.805,6.029,13.2965,4.59963,2470.11,2020-1-23T08:40:05Z
2020-01-23T06:42:35Z,42.805,6.029,13.2964,4.59963,2470.133,2020-1-23T08:43:09Z
2020-01-23T06:45:39Z,42.805,6.029,13.2959,4.59962,2470.11,2020-1-23T08:46:12Z
2020-01-23T06:48:42Z,42.805,6.029,13.2961,4.59963,2470.124,2020-1-23T08:49:15Z
2020-01-23T06:51:45Z,42.805,6.029,13.2967,4.59963,2470.11,2020-1-23T08:52:18Z
2020-01-23T06:54:49Z,42.805,6.029,13.2962,4.59963,2470.124,2020-1-23T08:55:22Z
2020-01-23T06:57:52Z,42.805,6.029,13.2965,4.59962,2470.11,2020-1-23T08:58:25Z
2020-01-23T07:00:55Z,42.805,6.029,13.2962,4.59964,2470.156,2020-1-23T09:01:28Z
2020-01-23T07:03:58Z,42.805,6.029,13.2965,4.59963,2470.156,2020-1-23T09:04:31Z
2020-01-23T07:07:02Z,42.805,6.029,13.2963,4.59963,2470.124,2020-1-23T09:07:35Z
2020-01-23T07:10:05Z,42.805,6.029,13.2962,4.59964,2470.11,2020-1-23T09:10:38Z
2020-01-23T07:13:08Z,42.805,6.029,13.2964,4.59962,2470.133,2020-1-23T09:13:41Z
2020-01-23T07:16:11Z,42.805,6.029,13.2965,4.59963,2470.077,2020-1-23T09:16:44Z
2020-01-23T07:19:15Z,42.805,6.029,13.2964,4.59963,2470.147,2020-1-23T09:19:48Z
2020-01-23T07:22:18Z,42.805,6.029,13.2964,4.59962,2470.133,2020-1-23T09:22:51Z
2020-01-23T07:25:21Z,42.805,6.029,13.2961,4.59962,2470.133,2020-1-23T09:25:54Z
2020-01-23T07:28:24Z,42.805,6.029,13.2964,4.59965,2470.133,2020-1-23T09:28:57Z
2020-01-23T07:31:27Z,42.805,6.029,13.2967,4.59963,2470.11,2020-1-23T09:32:00Z
2020-01-23T07:34:31Z,42.805,6.029,13.2964,4.59963,2470.11,2020-1-23T09:35:04Z
2020-01-23T07:37:34Z,42.805,6.029,13.2964,4.59964,2470.133,2020-1-23T09:38:07Z
2020-01-23T07:40:37Z,42.805,6.029,13.2966,4.59963,2470.147,2020-1-23T09:41:10Z
2020-01-23T07:43:40Z,42.805,6.029,13.2964,4.59963,2470.1,2020-1-23T09:44:14Z
2020-01-23T07:46:44Z,42.805,6.029,13.2965,4.59963,2470.124,2020-1-23T09:47:17Z
2020-01-23T07:49:47Z,42.805,6.029,13.2963,4.59964,2470.133,2020-1-23T09:50:20Z
2020-01-23T07:52:50Z,42.805,6.029,13.2966,4.59963,2470.124,2020-1-23T09:53:23Z
2020-01-23T07:55:53Z,42.805,6.029,13.2965,4.59964,2470.156,2020-1-23T09:56:26Z
2020-01-23T07:58:57Z,42.805,6.029,13.2963,4.59966,2470.11,2020-1-23T09:59:30Z
2020-01-23T08:02:00Z,42.805,6.029,13.2966,4.59966,2470.133,2020-1-23T10:02:33Z
2020-01-23T08:05:03Z,42.805,6.029,13.2968,4.59963,2470.119,2020-1-23T10:05:36Z
2020-01-23T08:08:06Z,42.805,6.029,13.2967,4.59963,2470.124,2020-1-23T10:08:39Z
2020-01-23T08:11:09Z,42.805,6.029,13.2961,4.59963,2470.133,2020-1-23T10:11:43Z
2020-01-23T08:14:13Z,42.805,6.029,13.2964,4.59964,2470.087,2020-1-23T10:14:46Z
2020-01-23T08:17:16Z,42.805,6.029,13.2968,4.59963,2470.124,2020-1-23T10:17:49Z
2020-01-23T08:20:19Z,42.805,6.029,13.2964,4.59964,2470.1,2020-1-23T10:20:52Z
2020-01-23T08:23:22Z,42.805,6.029,13.2964,4.59968,2470.124,2020-1-23T10:23:55Z
2020-01-23T08:26:26Z,42.805,6.029,13.2966,4.59966,2470.087,2020-1-23T10:26:59Z
2020-01-23T08:29:29Z,42.805,6.029,13.2969,4.59964,2470.087,2020-1-23T10:30:02Z
2020-01-23T08:32:32Z,42.805,6.029,13.2964,4.59964,2470.124,2020-1-23T10:33:05Z
2020-01-23T08:35:35Z,42.805,6.029,13.2962,4.59964,2470.087,2020-1-23T10:36:08Z
2020-01-23T08:38:39Z,42.805,6.029,13.2964,4.59964,2470.087,2020-1-23T10:39:12Z
2020-01-23T08:41:42Z,42.805,6.029,13.2966,4.59964,2470.11,2020-1-23T10:42:15Z
2020-01-23T08:44:45Z,42.805,6.029,13.2965,4.59966,2470.1,2020-1-23T10:45:18Z
2020-01-23T08:47:48Z,42.805,6.029,13.2966,4.59964,2470.11,2020-1-23T10:48:21Z
2020-01-23T08:50:52Z,42.805,6.029,13.2967,4.59970,2470.087,2020-1-23T10:51:25Z
2020-01-23T08:53:55Z,42.805,6.029,13.2967,4.59964,2470.1,2020-1-23T10:54:28Z
2020-01-23T08:56:58Z,42.805,6.029,13.2968,4.59964,2470.063,2020-1-23T10:57:31Z
2020-01-23T09:00:01Z,42.805,6.029,13.2967,4.59964,2470.11,2020-1-23T11:00:34Z
2020-01-23T09:03:04Z,42.805,6.029,13.2961,4.59966,2470.087,2020-1-23T11:03:37Z
2020-01-23T09:06:08Z,42.805,6.029,13.2967,4.59964,2470.11,2020-1-23T11:06:41Z
2020-01-23T09:09:11Z,42.805,6.029,13.2964,4.59964,2470.087,2020-1-23T11:09:44Z
2020-01-23T09:12:14Z,42.805,6.029,13.2964,4.59966,2470.077,2020-1-23T11:12:47Z
2020-01-23T09:15:17Z,42.805,6.029,13.2968,4.59966,2470.077,2020-1-23T11:15:50Z
2020-01-23T09:18:21Z,42.805,6.029,13.2964,4.59966,2470.087,2020-1-23T11:18:54Z
2020-01-23T09:21:24Z,42.805,6.029,13.2963,4.59964,2470.04,2020-1-23T11:21:57Z
2020-01-23T09:24:27Z,42.805,6.029,13.2966,4.59970,2470.1,2020-1-23T11:25:00Z
2020-01-23T09:27:30Z,42.805,6.029,13.2964,4.59965,2470.1,2020-1-23T11:28:03Z
2020-01-23T09:30:34Z,42.805,6.029,13.2967,4.59971,2470.053,2020-1-23T11:31:07Z
2020-01-23T09:33:37Z,42.805,6.029,13.2968,4.59966,2470.087,2020-1-23T11:34:10Z
2020-01-23T09:36:40Z,42.805,6.029,13.2964,4.59966,2470.1,2020-1-23T11:37:13Z
2020-01-23T09:39:43Z,42.805,6.029,13.2965,4.59966,2470.077,2020-1-23T11:40:17Z
2020-01-23T09:42:47Z,42.805,6.029,13.2965,4.59966,2470.053,2020-1-23T11:43:20Z
2020-01-23T09:45:50Z,42.805,6.029,13.2968,4.59966,2470.04,2020-1-23T11:46:23Z
2020-01-23T09:48:53Z,42.805,6.029,13.2968,4.59966,2470.063,2020-1-23T11:49:26Z
2020-01-23T09:51:57Z,42.805,6.029,13.2972,4.59966,2470.049,2020-1-23T11:52:30Z
2020-01-23T09:55:00Z,42.805,6.029,13.2966,4.59966,2470.04,2020-1-23T11:55:33Z
2020-01-23T09:58:03Z,42.805,6.029,13.2964,4.59968,2470.063,2020-1-23T11:58:36Z
2020-01-23T10:01:06Z,42.805,6.029,13.2965,4.59966,2470.077,2020-1-23T12:01:39Z
2020-01-23T10:04:10Z,42.805,6.029,13.2966,4.59966,2470.04,2020-1-23T12:04:43Z
2020-01-23T10:07:13Z,42.805,6.029,13.2968,4.59966,2470.04,2020-1-23T12:07:46Z
2020-01-23T10:10:16Z,42.805,6.029,13.2967,4.59967,2470.063,2020-1-23T12:10:49Z
2020-01-23T10:13:20Z,42.805,6.029,13.2967,4.59966,2470.087,2020-1-23T12:13:53Z
2020-01-23T10:16:23Z,42.805,6.029,13.2967,4.59968,2470.053,2020-1-23T12:16:56Z
2020-01-23T10:19:26Z,42.805,6.029,13.2967,4.59968,2470.063,2020-1-23T12:19:59Z
2020-01-23T10:22:29Z,42.805,6.029,13.2969,4.59968,2470.04,2020-1-23T12:23:02Z
2020-01-23T10:25:33Z,42.805,6.029,13.2971,4.59972,2470.04,2020-1-23T12:26:06Z
2020-01-23T10:28:36Z,42.805,6.029,13.2969,4.59967,2470.063,2020-1-23T12:29:09Z
2020-01-23T10:31:39Z,42.805,6.029,13.2967,4.59968,2470.04,2020-1-23T12:32:12Z
2020-01-23T10:34:42Z,42.805,6.029,13.2964,4.59970,2470.03,2020-1-23T12:35:15Z
2020-01-23T10:37:45Z,42.805,6.029,13.2969,4.59968,2470.04,2020-1-23T12:38:19Z
2020-01-23T10:40:49Z,42.805,6.029,13.2964,4.59971,2470.053,2020-1-23T12:41:22Z
2020-01-23T10:43:52Z,42.805,6.029,13.2964,4.59970,2470.04,2020-1-23T12:44:25Z
2020-01-23T10:46:55Z,42.805,6.029,13.2969,4.59970,2470.03,2020-1-23T12:47:28Z
2020-01-23T10:49:58Z,42.805,6.029,13.2966,4.59970,2470.03,2020-1-23T12:50:31Z
2020-01-23T10:53:01Z,42.805,6.029,13.2968,4.59978,2470.007,2020-1-23T12:53:35Z
2020-01-23T10:56:05Z,42.805,6.029,13.2977,4.59982,2470.053,2020-1-23T12:56:38Z
2020-01-23T10:59:08Z,42.805,6.029,13.3004,4.60021,2469.993,2020-1-23T12:59:41Z
2020-01-23T11:02:11Z,42.805,6.029,13.2976,4.59976,2470.03,2020-1-23T13:02:44Z
2020-01-23T11:05:15Z,42.805,6.029,13.2980,4.59990,2470.007,2020-1-23T13:05:48Z
2020-01-23T11:08:18Z,42.805,6.029,13.2972,4.59984,2469.993,2020-1-23T13:08:51Z
2020-01-23T11:11:21Z,42.805,6.029,13.2982,4.59982,2469.993,2020-1-23T13:11:54Z
2020-01-23T11:14:24Z,42.805,6.029,13.3015,4.59993,2470.017,2020-1-23T13:14:57Z
2020-01-23T11:17:28Z,42.805,6.029,13.2968,4.59984,2469.984,2020-1-23T13:18:01Z
2020-01-23T11:20:31Z,42.805,6.029,13.2968,4.59981,2469.97,2020-1-23T13:21:04Z
2020-01-23T11:23:34Z,42.805,6.029,13.2968,4.59972,2470.03,2020-1-23T13:24:07Z
2020-01-23T11:26:37Z,42.805,6.029,13.2971,4.60040,2469.993,2020-1-23T13:27:10Z
2020-01-23T11:29:41Z,42.805,6.029,13.2987,4.59980,2470.007,2020-1-23T13:30:14Z
2020-01-23T11:32:44Z,42.805,6.029,13.2991,4.59980,2469.97,2020-1-23T13:33:17Z
2020-01-23T11:35:47Z,42.805,6.029,13.2990,4.60003,2470.007,2020-1-23T13:36:20Z
2020-01-23T11:38:51Z,42.805,6.029,13.2993,4.59980,2470.007,2020-1-23T13:39:24Z
2020-01-23T11:41:54Z,42.805,6.029,13.2999,4.60017,2469.96,2020-1-23T13:42:27Z
2020-01-23T11:44:57Z,42.805,6.029,13.3006,4.59994,2469.993,2020-1-23T13:45:30Z
2020-01-23T11:48:00Z,42.805,6.029,13.3027,4.60011,2470.007,2020-1-23T13:48:33Z
2020-01-23T11:51:04Z,42.805,6.029,13.3014,4.60001,2469.96,2020-1-23T13:51:37Z
2020-01-23T11:54:07Z,42.805,6.029,13.2996,4.59992,2470.007,2020-1-23T13:54:40Z
2020-01-23T11:57:10Z,42.805,6.029,13.3009,4.59993,2470.007,2020-1-23T13:57:43Z
2020-01-23T12:00:13Z,42.805,6.029,13.3036,4.60013,2469.984,2020-1-23T14:00:46Z
2020-01-23T12:03:16Z,42.805,6.029,13.3032,4.60011,2469.947,2020-1-23T14:03:50Z
2020-01-23T12:06:20Z,42.805,6.029,13.3031,4.60016,2469.97,2020-1-23T14:06:53Z
2020-01-23T12:09:23Z,42.805,6.029,13.3018,4.60008,2469.97,2020-1-23T14:09:56Z
2020-01-23T12:12:26Z,42.805,6.029,13.3030,4.59987,2469.97,2020-1-23T14:12:59Z
2020-01-23T12:15:29Z,42.805,6.029,13.3013,4.59986,2469.96,2020-1-23T14:16:02Z
2020-01-23T12:18:33Z,42.805,6.029,13.3021,4.59986,2469.937,2020-1-23T14:19:06Z
2020-01-23T12:21:36Z,42.805,6.029,13.3011,4.59981,2469.984,2020-1-23T14:22:09Z
2020-01-23T12:24:39Z,42.805,6.029,13.2977,4.59986,2469.937,2020-1-23T14:25:12Z
2020-01-23T12:27:42Z,42.805,6.029,13.2976,4.60002,2469.96,2020-1-23T14:28:15Z
2020-01-23T12:30:45Z,42.805,6.029,13.3000,4.59994,2469.937,2020-1-23T14:31:18Z
2020-01-23T12:33:49Z,42.805,6.029,13.2981,4.59991,2469.947,2020-1-23T14:34:22Z
2020-01-23T12:36:52Z,42.805,6.029,13.2976,4.59994,2469.9,2020-1-23T14:37:25Z
2020-01-23T12:39:55Z,42.805,6.029,13.2969,4.60004,2469.947,2020-1-23T14:40:28Z
2020-01-23T12:42:58Z,42.805,6.029,13.2964,4.60000,2469.947,2020-1-23T14:43:32Z
2020-01-23T12:46:02Z,42.805,6.029,13.2987,4.60004,2469.96,2020-1-23T14:46:35Z
2020-01-23T12:49:05Z,42.805,6.029,13.2985,4.59978,2469.937,2020-1-23T14:49:38Z
2020-01-23T12:52:08Z,42.805,6.029,13.2976,4.59975,2469.96,2020-1-23T14:52:41Z
2020-01-23T12:55:11Z,42.805,6.029,13.2985,4.59974,2469.937,2020-1-23T14:55:44Z
2020-01-23T12:58:14Z,42.805,6.029,13.2984,4.59976,2469.984,2020-1-23T14:58:48Z
2020-01-23T13:01:18Z,42.805,6.029,13.2968,4.59973,2469.947,2020-1-23T15:01:51Z
2020-01-23T13:04:21Z,42.805,6.029,13.2979,4.59973,2469.947,2020-1-23T15:04:54Z
2020-01-23T13:07:24Z,42.805,6.029,13.2981,4.59975,2469.923,2020-1-23T15:07:57Z
2020-01-23T13:10:27Z,42.805,6.029,13.2982,4.59973,2469.947,2020-1-23T15:11:00Z
2020-01-23T13:13:30Z,42.805,6.029,13.2981,4.59973,2469.937,2020-1-23T15:14:04Z
2020-01-23T13:16:34Z,42.805,6.029,13.2974,4.59973,2469.914,2020-1-23T15:17:07Z
2020-01-23T13:19:37Z,42.805,6.029,13.2980,4.59972,2469.984,2020-1-23T15:20:10Z
2020-01-23T13:22:40Z,42.805,6.029,13.2980,4.59969,2469.937,2020-1-23T15:23:13Z
2020-01-23T13:25:43Z,42.805,6.029,13.2980,4.59972,2469.914,2020-1-23T15:26:16Z
2020-01-23T13:28:47Z,42.805,6.029,13.2977,4.59972,2469.9,2020-1-23T15:29:20Z
2020-01-23T13:31:50Z,42.805,6.029,13.2975,4.59973,2469.937,2020-1-23T15:32:23Z
2020-01-23T13:34:53Z,42.805,6.029,13.2969,4.59978,2469.97,2020-1-23T15:35:26Z
2020-01-23T13:37:56Z,42.805,6.029,13.2972,4.59971,2469.947,2020-1-23T15:38:30Z
2020-01-23T13:41:00Z,42.805,6.029,13.2971,4.59974,2469.923,2020-1-23T15:41:33Z
2020-01-23T13:44:03Z,42.805,6.029,13.2967,4.59972,2469.923,2020-1-23T15:44:36Z
2020-01-23T13:47:06Z,42.805,6.029,13.2969,4.59967,2469.937,2020-1-23T15:47:39Z
2020-01-23T13:50:10Z,42.805,6.029,13.2967,4.59968,2469.96,2020-1-23T15:50:43Z
2020-01-23T13:53:13Z,42.805,6.029,13.2968,4.59969,2469.923,2020-1-23T15:53:46Z
2020-01-23T13:56:16Z,42.805,6.029,13.2971,4.59979,2469.937,2020-1-23T15:56:49Z
2020-01-23T13:59:19Z,42.805,6.029,13.2967,4.59968,2469.923,2020-1-23T15:59:52Z
2020-01-23T14:02:22Z,42.805,6.029,13.2968,4.59976,2469.923,2020-1-23T16:02:55Z
2020-01-23T14:05:26Z,42.805,6.029,13.2968,4.59973,2469.937,2020-1-23T16:05:59Z
2020-01-23T14:08:29Z,42.805,6.029,13.2971,4.59968,2469.9,2020-1-23T16:09:02Z
2020-01-23T14:11:32Z,42.805,6.029,13.2964,4.59971,2469.947,2020-1-23T16:12:05Z
2020-01-23T14:14:35Z,42.805,6.029,13.2968,4.59966,2469.947,2020-1-23T16:15:08Z
2020-01-23T14:17:38Z,42.805,6.029,13.2966,4.59966,2469.947,2020-1-23T16:18:12Z
2020-01-23T14:20:42Z,42.805,6.029,13.2965,4.59966,2469.96,2020-1-23T16:21:15Z
2020-01-23T14:23:45Z,42.805,6.029,13.2969,4.59971,2469.947,2020-1-23T16:24:18Z
2020-01-23T14:26:48Z,42.805,6.029,13.2971,4.59971,2469.923,2020-1-23T16:27:21Z
2020-01-23T14:29:51Z,42.805,6.029,13.2965,4.59968,2469.947,2020-1-23T16:30:24Z
2020-01-23T14:32:54Z,42.805,6.029,13.2967,4.59968,2469.96,2020-1-23T16:33:28Z
2020-01-23T14:35:58Z,42.805,6.029,13.2965,4.59968,2469.937,2020-1-23T16:36:31Z
2020-01-23T14:39:01Z,42.805,6.029,13.2967,4.59971,2469.947,2020-1-23T16:39:34Z
2020-01-23T14:42:04Z,42.805,6.029,13.2967,4.59969,2469.937,2020-1-23T16:42:37Z
2020-01-23T14:45:07Z,42.805,6.029,13.2964,4.59967,2469.923,2020-1-23T16:45:40Z
2020-01-23T14:48:10Z,42.805,6.029,13.2967,4.59968,2469.937,2020-1-23T16:48:44Z
2020-01-23T14:51:14Z,42.805,6.029,13.2965,4.59966,2469.923,2020-1-23T16:51:47Z
2020-01-23T14:54:17Z,42.805,6.029,13.2967,4.59969,2469.984,2020-1-23T16:54:50Z
2020-01-23T14:57:20Z,42.805,6.029,13.2965,4.59970,2469.96,2020-1-23T16:57:53Z
2020-01-23T15:00:23Z,42.805,6.029,13.2964,4.59969,2469.923,2020-1-23T17:00:57Z
2020-01-23T15:03:27Z,42.805,6.029,13.2964,4.59973,2469.97,2020-1-23T17:04:00Z
2020-01-23T15:06:30Z,42.805,6.029,13.2964,4.59972,2469.937,2020-1-23T17:07:03Z
2020-01-23T15:09:33Z,42.805,6.029,13.2969,4.59975,2469.96,2020-1-23T17:10:06Z
2020-01-23T15:12:36Z,42.805,6.029,13.2968,4.59973,2469.96,2020-1-23T17:13:09Z
2020-01-23T15:15:39Z,42.805,6.029,13.2967,4.59976,2469.947,2020-1-23T17:16:13Z